Weather WX

World > North America > United States > Minnesota

Ogilvie, Minnesota Regional Weather

Lat: 45.83N, Lon: 93.42W
Wx Zone: MNZ045
Warning FLW WEATHER ALERT - (More Info. Click Here) Warning
Feedback

Ogilvie, MN Regional Weather

Expires:201906260500;;086982
ASUS43 KMPX 260410
RWRMN 
WEATHER ROUNDUP FOR MINNESOTA
NATIONAL WEATHER SERVICE TWIN CITIES/CHANHASSEN MN
1100 PM CDT TUE JUN 25 2019


NOTE: "FAIR" INDICATES FEW OR NO CLOUDS BELOW 12,000 FEET WITH NO
SIGNIFICANT WEATHER AND/OR OBSTRUCTIONS TO VISIBILITY. N/A MEANS
CURRENT SKY AND/OR WEATHER CONDITIONS ARE NOT AVAILABLE.


MNZ037-044-045-052-053-260500-
   East Central Minnesota   
  
CITY           SKY/WX    TMP DP  RH WIND       PRES   REMARKS
PRINCETON      FAIR      61  59  94 S3        29.88R                  
MORA           FAIR      64  59  82 CALM      29.88R                  
CAMBRIDGE      FAIR      63  52  67 CALM      29.88R                  
RUSH CITY      MOCLDY    63  57  80 CALM      29.87R                  
MOOSE LAKE     FAIR      55  52  88 CALM      29.83R                  
HINCKLEY       FAIR      61  55  82 W3        29.85R                  
CLOQUET        FAIR      63  52  67 SW5       29.82R                  
MCGREGOR       FAIR      64  54  68 SW5       29.84R                  
$$

SKY/WX - Weather  TMP - Temperature  DP - Dew Point  RH - Relative Humidity
WIND - Wind Direction/Speed PRES - Barometric Pressure VSB - Visibility
WCI - Wind Chill Index E13G22 Wind - East Wind 13 mph/Gusts of 22 mph